Weather history for 0430

Weather History For Prescott AZ

This page updates 5 minutes after midnight. GMT -7

Station: KPRC0 Rows: 26

Return to today's weather
Year Date Temp (°F) Tmin (°F) Tmax (°F) RH% Prcp Snow Wind Gust Pres Sun Cloud
2000 2000-04-30 59.0 39.0 75.9 22 11.6 29.96 0
2001 2001-04-30 63.3 44.1 80.1 28 9.5 30.01 0
2002 2002-04-30 59.0 46.4 71.6 22 20.9 29.77 0
2003 2003-04-30 51.8 25 13.0 29.80 0
2004 2004-04-30 53.8 31 14.8 29.93 1
2005 2005-04-30 52.9 39.9 66.0 52 0.0 9.3 30.01 0
2006 2006-04-30 63.9 46.0 78.1 38 0.0 10.8 29.87 2
2007 2007-04-30 66.9 48.9 80.1 38 0.0 11.8 29.87 0
2008 2008-04-30 62.8 50.0 71.1 18 0.0 21.5 29.59 0
2009 2009-04-30 60.4 39.0 77.0 24 0.0 10.9 29.93 0
2010 2010-04-30 42.8 28.0 53.1 38 0.0 11.5 29.71 3
2011 2011-04-30 47.3 34.0 59.0 15 0.0 16.7 29.85 0
2012 2012-04-30 63.3 46.0 78.1 26 0.0 12.1 29.86 0
2013 2013-04-30 70.5 53.1 82.0 14 0.0 19.7 29.66 0
2014 2014-04-30 53.1 39.0 66.9 18 0.0 21.9 30.04 0
2015 2015-04-30 67.1 50.0 81.0 28 0.0 10.1 29.84 1
2016 2016-04-30 48.7 39.9 55.0 66 15.6 29.68
2017 2017-04-30 55.2 34.0 72.0 25 0.0 11.9 30.01 0
2018 2018-04-30 58.1 48.0 66.0 27 0.0 17.1 29.72 0
2019 2019-04-30 53.8 44.1 64.0 63 0.0 16.6 29.80
2020 2020-04-30 69.3 55.0 81.0 28 0.0 13.2 29.87 0
2021 2021-04-30 66.2 46.0 82.9 24 0.0 11.2 30.03 0
2022 2022-04-30 61.3 39.9 77.0 18 0.0 10.3 29.81 0
2023 2023-04-30 67.5 48.0 82.9 19 0.0 11.8 29.81 0
2024 2024-04-30 60.1 45.0 73.9 32 0.0 10.9 29.85 0
2025 2025-04-30 55.9 37.0 70.0 35 0.0 9.8 29.91 1
Average Low 43.4
Average High 72.7

Daily High / Low by Year (04/30)

Barometric Pressure by Year (04/30)

Weather data provided by Meteostat